TimeCDT,TemperatureF,Dew PointF,Humidity,Sea Level PressureIn,VisibilityMPH,Wind Direction,Wind SpeedMPH,Gust SpeedMPH,PrecipitationIn,Events,Conditions,WindDirDegrees,DateUTC
12:15 AM,54.1,50.0,86,29.94,10.0,NW,3.5,-,N/A,,Clear,320,2013-07-27 05:15:00
12:35 AM,53.6,50.0,88,29.94,10.0,Calm,Calm,-,N/A,,Clear,0,2013-07-27 05:35:00
12:55 AM,53.6,49.8,87,29.94,10.0,NW,3.5,-,0.01,,Scattered Clouds,320,2013-07-27 05:55:00
1:15 AM,53.6,50.0,88,29.94,10.0,WNW,3.5,-,N/A,,Mostly Cloudy,300,2013-07-27 06:15:00
1:35 AM,53.6,49.1,85,29.94,10.0,NW,6.9,-,N/A,,Scattered Clouds,320,2013-07-27 06:35:00
1:55 AM,52.7,47.7,83,29.94,10.0,NW,4.6,-,N/A,,Scattered Clouds,320,2013-07-27 06:55:00
2:15 AM,52.7,48.2,85,29.93,10.0,NW,5.8,-,N/A,,Mostly Cloudy,320,2013-07-27 07:15:00
2:35 AM,52.7,47.8,84,29.94,10.0,NNW,4.6,-,N/A,,Overcast,330,2013-07-27 07:35:00
2:55 AM,52.2,47.3,83,29.94,10.0,NW,5.8,-,N/A,,Scattered Clouds,310,2013-07-27 07:55:00
3:15 AM,52.2,46.4,81,29.94,10.0,NW,5.8,-,N/A,,Scattered Clouds,320,2013-07-27 08:15:00
3:35 AM,52.2,46.4,81,29.94,10.0,NW,4.6,-,N/A,,Mostly Cloudy,310,2013-07-27 08:35:00
3:55 AM,52.5,45.9,78,29.94,10.0,WNW,3.5,-,N/A,,Overcast,290,2013-07-27 08:55:00
4:15 AM,52.3,45.7,78,29.94,10.0,WNW,5.8,-,N/A,,Overcast,300,2013-07-27 09:15:00
4:35 AM,52.5,45.5,77,29.95,10.0,WNW,4.6,-,N/A,,Overcast,290,2013-07-27 09:35:00
4:55 AM,52.0,45.3,78,29.95,10.0,WNW,6.9,-,N/A,,Overcast,290,2013-07-27 09:55:00
5:15 AM,50.7,44.6,80,29.96,10.0,WNW,8.1,-,N/A,,Mostly Cloudy,300,2013-07-27 10:15:00
5:35 AM,49.6,44.6,83,29.96,10.0,NW,8.1,-,N/A,,Scattered Clouds,320,2013-07-27 10:35:00
5:55 AM,49.1,44.2,83,29.96,10.0,NW,6.9,-,N/A,,Scattered Clouds,320,2013-07-27 10:55:00
6:15 AM,50.0,44.6,82,29.96,10.0,WNW,5.8,-,N/A,,Mostly Cloudy,300,2013-07-27 11:15:00
6:35 AM,50.7,45.0,81,29.96,10.0,NW,6.9,-,N/A,,Mostly Cloudy,320,2013-07-27 11:35:00
6:55 AM,51.8,44.6,76,29.96,10.0,WNW,8.1,-,N/A,,Overcast,300,2013-07-27 11:55:00
7:15 AM,52.5,44.8,75,29.96,10.0,WNW,6.9,-,N/A,,Overcast,300,2013-07-27 12:15:00
7:35 AM,52.5,44.6,74,29.96,10.0,NW,3.5,-,N/A,,Overcast,310,2013-07-27 12:35:00
7:55 AM,53.1,45.0,74,29.96,10.0,NW,8.1,-,N/A,,Overcast,310,2013-07-27 12:55:00
8:15 AM,53.6,44.4,71,29.95,10.0,WNW,9.2,-,N/A,,Overcast,290,2013-07-27 13:15:00
8:35 AM,53.6,43.0,67,29.95,10.0,WNW,6.9,-,N/A,,Overcast,300,2013-07-27 13:35:00
8:55 AM,54.1,42.1,64,29.95,10.0,WNW,8.1,-,N/A,,Overcast,300,2013-07-27 13:55:00
9:15 AM,54.3,43.2,66,29.94,10.0,WNW,8.1,-,N/A,,Overcast,290,2013-07-27 14:15:00
9:35 AM,54.9,42.3,63,29.94,10.0,WNW,5.8,-,N/A,,Overcast,300,2013-07-27 14:35:00
9:55 AM,57.4,43.7,60,29.93,10.0,NW,5.8,-,N/A,,Mostly Cloudy,310,2013-07-27 14:55:00
10:15 AM,55.6,42.8,62,29.93,10.0,WNW,6.9,-,N/A,,Mostly Cloudy,300,2013-07-27 15:15:00
10:35 AM,58.5,42.1,55,29.93,10.0,NW,8.1,-,N/A,,Mostly Cloudy,310,2013-07-27 15:35:00
10:55 AM,57.6,42.8,58,29.92,10.0,NW,8.1,-,N/A,,Overcast,310,2013-07-27 15:55:00
11:15 AM,57.2,43.2,59,29.92,10.0,West,8.1,-,N/A,,Overcast,280,2013-07-27 16:15:00
11:35 AM,56.3,43.3,62,29.92,10.0,WNW,6.9,-,0.01,,Overcast,290,2013-07-27 16:35:00
11:55 AM,57.6,43.3,59,29.92,10.0,NW,8.1,-,0.01,,Overcast,310,2013-07-27 16:55:00
12:15 PM,58.1,43.3,58,29.91,10.0,West,10.4,-,N/A,,Overcast,270,2013-07-27 17:15:00
12:35 PM,56.8,43.7,61,29.91,10.0,West,8.1,-,N/A,,Overcast,270,2013-07-27 17:35:00
12:55 PM,59.4,43.2,55,29.90,10.0,WNW,8.1,-,N/A,,Overcast,290,2013-07-27 17:55:00
1:15 PM,59.5,43.3,55,29.91,10.0,West,8.1,-,N/A,,Overcast,280,2013-07-27 18:15:00
1:35 PM,58.6,43.7,58,29.91,10.0,West,8.1,-,N/A,,Overcast,280,2013-07-27 18:35:00
1:55 PM,59.4,44.6,58,29.90,10.0,West,9.2,-,N/A,,Overcast,270,2013-07-27 18:55:00
2:15 PM,58.3,45.7,63,29.90,10.0,West,10.4,-,N/A,,Overcast,270,2013-07-27 19:15:00
2:35 PM,60.4,46.0,59,29.89,10.0,West,9.2,-,N/A,,Overcast,270,2013-07-27 19:35:00
2:55 PM,61.2,45.9,57,29.89,10.0,West,17.3,20.7,N/A,,Overcast,260,2013-07-27 19:55:00
3:15 PM,59.2,46.4,63,29.88,10.0,West,10.4,-,N/A,,Overcast,260,2013-07-27 20:15:00
3:35 PM,62.2,46.9,57,29.88,10.0,West,13.8,-,0.01,,Mostly Cloudy,270,2013-07-27 20:35:00
3:55 PM,63.7,45.5,52,29.87,10.0,WSW,16.1,20.7,0.01,,Overcast,250,2013-07-27 20:55:00
4:15 PM,63.5,46.0,53,29.87,10.0,West,11.5,-,N/A,,Overcast,280,2013-07-27 21:15:00
4:35 PM,62.1,46.2,56,29.87,10.0,WNW,10.4,-,N/A,,Overcast,300,2013-07-27 21:35:00
4:55 PM,59.9,46.2,61,29.87,10.0,WNW,8.1,-,N/A,,Overcast,300,2013-07-27 21:55:00
5:15 PM,59.2,46.9,64,29.87,10.0,West,6.9,-,N/A,,Overcast,280,2013-07-27 22:15:00
5:35 PM,59.5,46.8,63,29.86,10.0,WNW,6.9,-,N/A,,Overcast,290,2013-07-27 22:35:00
5:55 PM,61.3,46.9,59,29.85,10.0,West,8.1,-,N/A,,Overcast,270,2013-07-27 22:55:00
6:15 PM,62.2,46.2,56,29.85,10.0,WNW,9.2,-,0.01,,Overcast,290,2013-07-27 23:15:00
6:35 PM,60.8,47.3,61,29.85,10.0,West,6.9,-,0.01,,Overcast,280,2013-07-27 23:35:00
6:55 PM,59.7,47.1,63,29.85,10.0,West,9.2,-,0.01,,Overcast,270,2013-07-27 23:55:00
7:15 PM,59.2,47.8,66,29.85,10.0,West,6.9,-,N/A,,Overcast,260,2013-07-28 00:15:00
7:35 PM,59.0,48.2,67,29.85,10.0,West,9.2,-,N/A,,Overcast,260,2013-07-28 00:35:00
7:55 PM,57.7,47.7,69,29.85,10.0,West,6.9,-,N/A,,Overcast,270,2013-07-28 00:55:00
8:15 PM,57.2,47.7,70,29.85,10.0,WNW,6.9,-,N/A,,Overcast,290,2013-07-28 01:15:00
8:35 PM,56.8,46.4,68,29.85,10.0,West,5.8,-,N/A,,Overcast,280,2013-07-28 01:35:00
8:55 PM,56.3,47.3,72,29.86,10.0,West,6.9,-,N/A,,Overcast,280,2013-07-28 01:55:00
9:15 PM,55.9,48.0,75,29.86,10.0,West,5.8,-,N/A,,Overcast,280,2013-07-28 02:15:00
9:35 PM,55.9,48.4,76,29.86,10.0,West,4.6,-,N/A,,Overcast,270,2013-07-28 02:35:00
9:55 PM,55.9,48.9,77,29.86,10.0,West,4.6,-,N/A,,Overcast,260,2013-07-28 02:55:00
10:15 PM,55.6,49.1,79,29.86,10.0,West,3.5,-,N/A,,Overcast,270,2013-07-28 03:15:00
10:35 PM,55.6,48.6,77,29.85,10.0,West,8.1,-,N/A,,Overcast,280,2013-07-28 03:35:00
10:55 PM,55.4,48.9,79,29.85,10.0,West,8.1,-,N/A,,Overcast,270,2013-07-28 03:55:00
11:15 PM,54.5,49.1,82,29.85,10.0,West,6.9,-,N/A,,Overcast,270,2013-07-28 04:15:00
11:35 PM,54.5,49.6,84,29.85,10.0,West,6.9,-,N/A,,Overcast,280,2013-07-28 04:35:00
11:55 PM,54.1,49.6,85,29.85,10.0,West,4.6,-,N/A,,Overcast,280,2013-07-28 04:55:00